Location: Virginia Beach
(36.8530°N, 75.9780°W)
Time: 07:59:56
(UTC-05:00)

ISS - Visible Passes

Search period start: 18 December 2017 00:00
Search period end: 28 December 2017 00:00
Orbit: 402 x 406 km, 51.6° (Epoch: 18 December)

Date Brightness Start Highest point End Pass type
(mag) Time Alt. Az. Time Alt. Az. Time Alt. Az.
19 Dec -0.1 17:54:55 10° WSW 17:55:53 11° SW 17:56:50 10° SW visible
25 Dec -0.8 06:10:25 10° S 06:12:53 20° SE 06:15:21 10° E visible
27 Dec -3.1 06:01:14 10° SW 06:04:26 54° SE 06:07:39 10° ENE visible
